Regional Weather Roundup
Issued by NWS

Home | Current Version | Previous Version | Text Only | Print | Product List | Glossary Off
Versions: 1 2 3 4 5 6 7 8 9 10 11 12 13 14 15 16 17 18 19 20 21 22 23 24 25 26 27 28 29 30 31 32 33 34 35 36 37 38 39 40 41 42 43 44 45 46 47 48 49 50

000
ASUS43 KFSD 211402
RWRSD

WEATHER ROUNDUP FOR SOUTH DAKOTA
NATIONAL WEATHER SERVICE SIOUX FALLS SD
900 AM CDT THU AUG 21 2014

NOTE: "FAIR" INDICATES FEW OR NO CLOUDS BELOW 12,000 FEET WITH NO
SIGNIFICANT WEATHER AND/OR OBSTRUCTIONS TO VISIBILITY.


SDZ001>005-009-010-012>017-211500-
NORTHWEST AND NORTH CENTRAL SOUTH DAKOTA

CITY           SKY/WX    TMP DP  RH WIND       PRES   REMARKS
BUFFALO          N/A     64  56  75 NW16      29.88R
FAITH            N/A     64  60  87 NW7       29.90R
MOBRIDGE       MOSUNNY   68  66  93 NW10      29.81R
$$

SDZ012>016-024>037-041>051-057-063-072>074-211500-
SOUTHWEST AND SOUTH CENTRAL SOUTH DAKOTA

CITY           SKY/WX    TMP DP  RH WIND       PRES   REMARKS
RAPID CTY ARPT PTSUNNY   68  61  78 CALM      29.95R
PIERRE         MOSUNNY   67  65  93 N7        29.83R
CUSTER         CLOUDY    62  52  69 CALM      30.07R
ELLSWORTH AFB  CLOUDY    68  58  71 N5        29.95R
PHILIP         MOSUNNY   70  61  73 NW7       29.89R
PINE RIDGE     MOSUNNY   63  59  87 W3        29.97R
WINNER         FAIR      70  64  81 NW13      29.86R
$$

SDZ004>011-016>023-039-040-211500-
NORTHEAST SOUTH DAKOTA

CITY           SKY/WX    TMP DP  RH WIND       PRES   REMARKS
ABERDEEN       SUNNY     67  65  93 SW7       29.77S
WATERTOWN      SUNNY     70  67  90 SW6       29.77S
SISSETON         N/A     71  69  93 S13       29.73S
$$

SDZ017-020-022-023-036>040-048>070-211500-
SOUTHEAST SOUTH DAKOTA

CITY           SKY/WX    TMP DP  RH WIND       PRES   REMARKS
SIOUX FALLS    CLOUDY    77  70  79 SW7       29.77S
HURON          SUNNY     72  66  81 N3        29.77S
CHAMBERLAIN    MOSUNNY   69  66  91 NW10      29.82S
MITCHELL       CLOUDY    72  69  90 N9        29.78R
YANKTON        CLOUDY    75  64  69 W9        29.76S
$$

ABBREVIATIONS USED IN REMARKS
   TC - TEMPERATURE IN CELSIUS
  WCI - WIND CHILL INDEX
   HX - HEAT INDEX
  VSB - VISIBILITY



USA.gov is the U.S. government's official web portal to all federal, state and local government web resources and services.